Regional Weather Roundup
Issued by NWS

Home | Current Version | Previous Version | Graphics & Text | Print | Product List | Glossary On
Versions: 1 2 3 4 5 6 7 8 9 10 11 12 13 14 15 16 17 18 19 20 21 22 23 24 25 26 27 28 29 30 31 32 33 34 35 36 37 38 39 40 41 42 43 44 45 46 47 48 49 50
000
ASUS44 KMEG 291010
RWRTN
TENNESSEE HOURLY STATE WEATHER ROUNDUP
NATIONAL WEATHER SERVICE MEMPHIS TN
500 AM CDT WED MAR 29 2017

TNZ002-004-019-021-049-052-054-088>092-291100-
WEST TENNESSEE

CITY           SKY/WX    TMP DP  RH WIND       PRES   REMARKS
MEMPHIS INTL   PTCLDY    62  54  74 E9        29.91S
NWS MEMPHIS      N/A     59 N/A N/A MISG        N/A
JACKSON        CLEAR     57  55  93 E6        29.95F
DYERSBURG      CLEAR     56  53  90 E9        29.96F FOG
SOMERVILLE     MOCLDY    59  54  82 VRB5      29.93R
BOLIVAR        CLOUDY    57  54  88 E6        29.94S
PARIS          CLEAR     52  52 100 E9        29.99F
HUNTINGDON     CLOUDY    55  54  94 E10       29.97F FOG
SAVANNAH       CLOUDY    55  54  94 CALM      29.95F
$$

TNZ008-025-027-028-033-062-065-066-291100-
NORTH MIDDLE TENNESSEE

CITY           SKY/WX    TMP DP  RH WIND       PRES   REMARKS
NASHVILLE      CLEAR     52  50  93 CALM      30.04R
PORTLAND       CLEAR     52  52 100 NE6       30.05S FOG
CLARKSVILLE    PTCLDY    50  49  96 E5        30.03S FOG
SMYRNA         CLEAR     48  46  93 CALM      30.04S FOG
COOKEVILLE     CLEAR     45  45 100 CALM      30.03R FOG
GALLATIN       CLEAR     54  52  94 NE6       30.06S
CROSSVILLE     FOG       48  48 100 NE3       30.05S VSB<1/4
$$

TNZ061-075-076-078-094-096-097-291100-
SOUTH MIDDLE TENNESSEE

CITY           SKY/WX    TMP DP  RH WIND       PRES   REMARKS
FAYETTEVILLE   CLOUDY    55  52  88 NE8       30.00S
TULLAHOMA      CLEAR     46  45  93 CALM        N/A
WINCHESTER     CLEAR     46  45  93 CALM      30.02S
MCMINNVILLE    CLEAR     48  48 100 CALM      30.03R
COLUMBIA       CLEAR    N/A N/A N/A CALM      29.99S
SHELBYVILLE    CLEAR     48  48 100 CALM      30.02F
$$

TNZ017-018-042-046-047-291100-
NORTHEAST TENNESSEE

CITY           SKY/WX    TMP DP  RH WIND       PRES   REMARKS
TRI CITIES     PTCLDY    48  46  93 CALM      30.06R
ELIZABETHTON   CLEAR     45  45 100 CALM      30.05S
$$

TNZ012-013-036-069-073-074-291100-
CENTRAL EAST TENNESSEE

CITY           SKY/WX    TMP DP  RH WIND       PRES   REMARKS
KNOXVILLE      CLEAR     51  48  89 CALM      30.01S
OAK RIDGE      CLEAR     50  47  89 CALM      30.04S
DOWNTOWN KNOXV FOG       50  50 100 CALM      30.03S VSB 0
GATLINBURG     PTCLDY    46  45  93 CALM      30.03R
MORRISTOWN     MOCLDY    52  50  93 CALM      30.02S
JACKSBORO      MOCLDY    46  46 100 CALM      30.07S FOG
$$

TNZ083-085-099-291100-
SOUTHEAST TENNESSEE

CITY           SKY/WX    TMP DP  RH WIND       PRES   REMARKS
CHATTANOOGA    CLEAR     52  49  89 CALM      30.03R
$$

SKY/WX REPORTED AS FAIR MEANS FEW OR NO CLOUDS BELOW
12 THOUSAND FEET.





USA.gov is the U.S. government's official web portal to all federal, state and local government web resources and services.